User: anonymous   Login
Location: Haliburton Scout Reserve
(45.0900°N, 78.3200°W)
Time: 15:59:02
(UTC-04:00)
Language:

Explorer 7 - Orbit

View from above orbital plane
View from above orbital plane
View from above satellite
View from above satellite

Ground track
Ground track

The orbit data is extracted from the following two-line orbital elements,

1    22U 59009A   24113.46927933  .00013002  00000-0  77295-3 0  9990
2    22  50.2798 319.1395 0115421 251.9695 106.8652 15.06074910435967
Epoch (UTC): 22 April 2024 11:15:45
Eccentricity: 0.0115421
inclination: 50.2798°
perigee height: 468 km
apogee height: 628 km
right ascension of ascending node: 319.1395°
argument of perigee: 251.9695°
revolutions per day: 15.06074910
mean anomaly at epoch: 106.8652°
orbit number at epoch: 43596

The dashed part of the orbit path shows where the satellite is in the earth's shadow,  

DLR